Time,TemperatureF,DewpointF,PressureIn,WindDirection,WindDirectionDegrees,WindSpeedMPH,WindSpeedGustMPH,Humidity,HourlyPrecipIn,Conditions,Clouds,dailyrainin,SoftwareType,DateUTC
2013-12-30 09:30:00,13.9,4.3,30.25,South,180,3.8,3.8,65,0.00,,,0.00,WUHU216HW,2013-12-30 15:30:00,
2013-12-30 09:35:00,13.9,4.3,30.25,South,180,3.8,3.8,65,0.00,,,0.00,WUHU216HW,2013-12-30 15:35:00,
2013-12-30 10:00:00,14.1,3.5,30.23,SSW,203,6.3,6.3,62,0.00,,,0.00,WUHU216HW,2013-12-30 16:00:00,
2013-12-30 10:05:00,14.1,3.5,30.23,SSW,203,6.3,6.3,62,0.00,,,0.00,WUHU216HW,2013-12-30 16:05:00,
2013-12-30 10:30:00,16.4,5.3,30.23,South,180,5.4,5.4,61,0.00,,,0.00,WUHU216HW,2013-12-30 16:30:00,
2013-12-30 10:35:00,16.4,5.3,30.23,South,180,5.4,5.4,61,0.00,,,0.00,WUHU216HW,2013-12-30 16:35:00,
2013-12-30 11:00:00,18.2,6.3,30.22,South,180,4.3,4.3,59,0.00,,,0.00,WUHU216HW,2013-12-30 17:00:00,
2013-12-30 11:05:00,18.2,6.3,30.22,South,180,4.3,4.3,59,0.00,,,0.00,WUHU216HW,2013-12-30 17:05:00,
2013-12-30 11:30:00,19.3,5.3,30.22,SW,225,6.5,6.5,54,0.00,,,0.00,WUHU216HW,2013-12-30 17:30:00,
2013-12-30 11:35:00,19.3,5.3,30.22,SW,225,6.5,6.5,54,0.00,,,0.00,WUHU216HW,2013-12-30 17:35:00,
2013-12-30 12:00:00,21.7,8.0,30.20,South,180,5.4,5.4,55,0.00,,,0.00,WUHU216HW,2013-12-30 18:00:00,
2013-12-30 12:05:00,21.7,8.0,30.20,South,180,5.4,5.4,55,0.00,,,0.00,WUHU216HW,2013-12-30 18:05:00,
2013-12-30 12:30:00,22.7,7.7,30.18,SSW,203,5.4,5.4,52,0.00,,,0.00,WUHU216HW,2013-12-30 18:30:00,
2013-12-30 12:35:00,22.7,7.7,30.18,SSW,203,5.4,5.4,52,0.00,,,0.00,WUHU216HW,2013-12-30 18:35:00,
2013-12-30 13:00:00,24.0,7.0,30.17,SW,225,5.1,5.1,48,0.00,,,0.00,WUHU216HW,2013-12-30 19:00:00,
2013-12-30 13:05:00,24.0,7.0,30.17,SW,225,5.1,5.1,48,0.00,,,0.00,WUHU216HW,2013-12-30 19:05:00,
2013-12-30 13:30:00,24.7,7.7,30.15,SSW,203,6.3,6.3,48,0.00,,,0.00,WUHU216HW,2013-12-30 19:30:00,
2013-12-30 13:35:00,24.7,7.7,30.15,SSW,203,6.3,6.3,48,0.00,,,0.00,WUHU216HW,2013-12-30 19:35:00,
2013-12-30 14:00:00,26.0,8.4,30.15,South,180,3.6,3.6,47,0.00,,,0.00,WUHU216HW,2013-12-30 20:00:00,
2013-12-30 14:05:00,26.0,8.4,30.15,South,180,3.6,3.6,47,0.00,,,0.00,WUHU216HW,2013-12-30 20:05:00,
2013-12-30 14:30:00,27.2,10.0,30.13,SSE,158,4.5,4.5,48,0.00,,,0.00,WUHU216HW,2013-12-30 20:30:00,
2013-12-30 14:35:00,27.2,10.0,30.13,SSE,158,4.5,4.5,48,0.00,,,0.00,WUHU216HW,2013-12-30 20:35:00,
2013-12-30 15:00:00,28.0,9.2,30.14,SSW,203,4.7,4.7,45,0.00,,,0.00,WUHU216HW,2013-12-30 21:00:00,
2013-12-30 15:05:00,28.0,9.2,30.14,SSW,203,4.7,4.7,45,0.00,,,0.00,WUHU216HW,2013-12-30 21:05:00,
2013-12-30 15:30:00,28.5,10.7,30.14,SSE,158,1.8,1.8,47,0.00,,,0.00,WUHU216HW,2013-12-30 21:30:00,
2013-12-30 15:35:00,28.5,10.7,30.14,SSE,158,1.8,1.8,47,0.00,,,0.00,WUHU216HW,2013-12-30 21:35:00,
2013-12-30 16:00:00,28.9,9.6,30.16,WSW,248,2.5,2.5,44,0.00,,,0.00,WUHU216HW,2013-12-30 22:00:00,
2013-12-30 16:05:00,28.9,9.6,30.16,WSW,248,2.5,2.5,44,0.00,,,0.00,WUHU216HW,2013-12-30 22:05:00,
2013-12-30 16:30:00,28.9,10.6,30.15,SW,225,1.1,1.1,46,0.00,,,0.00,WUHU216HW,2013-12-30 22:30:00,
2013-12-30 16:35:00,28.9,10.6,30.15,SW,225,1.1,1.1,46,0.00,,,0.00,WUHU216HW,2013-12-30 22:35:00,
2013-12-30 17:00:00,28.3,11.0,30.15,South,180,0.7,0.7,48,0.00,,,0.00,WUHU216HW,2013-12-30 23:00:00,
2013-12-30 17:05:00,28.3,11.0,30.15,South,180,0.7,0.7,48,0.00,,,0.00,WUHU216HW,2013-12-30 23:05:00,
2013-12-30 17:30:00,26.9,10.7,30.15,SSE,158,0.4,0.4,50,0.00,,,0.00,WUHU216HW,2013-12-30 23:30:00,
2013-12-30 17:35:00,26.9,10.7,30.15,SSE,158,0.4,0.4,50,0.00,,,0.00,WUHU216HW,2013-12-30 23:35:00,
2013-12-30 18:00:00,24.7,9.5,30.15,SE,135,1.3,1.3,52,0.00,,,0.00,WUHU216HW,2013-12-31 00:00:00,
2013-12-30 18:05:00,24.7,9.5,30.15,SE,135,1.3,1.3,52,0.00,,,0.00,WUHU216HW,2013-12-31 00:05:00,
2013-12-30 18:30:00,23.5,9.3,30.15,SE,135,0.7,0.7,54,0.00,,,0.00,WUHU216HW,2013-12-31 00:30:00,
2013-12-30 18:35:00,23.5,9.3,30.15,SE,135,0.7,0.7,54,0.00,,,0.00,WUHU216HW,2013-12-31 00:35:00,
2013-12-30 19:00:00,23.8,10.0,30.17,SE,135,0.7,0.7,55,0.00,,,0.00,WUHU216HW,2013-12-31 01:00:00,
2013-12-30 19:05:00,23.8,10.0,30.17,SE,135,0.7,0.7,55,0.00,,,0.00,WUHU216HW,2013-12-31 01:05:00,
2013-12-30 19:30:00,23.5,10.1,30.18,South,180,1.8,1.8,56,0.00,,,0.00,WUHU216HW,2013-12-31 01:30:00,
2013-12-30 19:35:00,23.5,10.1,30.18,South,180,1.8,1.8,56,0.00,,,0.00,WUHU216HW,2013-12-31 01:35:00,
2013-12-30 20:00:00,23.3,9.9,30.20,SSE,158,0.4,0.4,56,0.00,,,0.00,WUHU216HW,2013-12-31 02:00:00,
2013-12-30 20:05:00,23.3,9.9,30.20,SSE,158,0.4,0.4,56,0.00,,,0.00,WUHU216HW,2013-12-31 02:05:00,
2013-12-30 20:30:00,21.5,9.0,30.20,SSW,203,1.1,1.1,58,0.00,,,0.00,WUHU216HW,2013-12-31 02:30:00,
2013-12-30 20:35:00,21.5,9.0,30.20,SSW,203,1.1,1.1,58,0.00,,,0.00,WUHU216HW,2013-12-31 02:35:00,
2013-12-30 21:00:00,20.4,8.4,30.20,NE,45,0.0,0.0,59,0.00,,,0.00,WUHU216HW,2013-12-31 03:00:00,
2013-12-30 21:05:00,20.4,8.4,30.20,NE,45,0.0,0.0,59,0.00,,,0.00,WUHU216HW,2013-12-31 03:05:00,
2013-12-30 21:30:00,20.0,8.7,30.22,SSW,203,0.7,0.7,61,0.00,,,0.00,WUHU216HW,2013-12-31 03:30:00,
2013-12-30 21:35:00,20.0,8.7,30.22,SSW,203,0.7,0.7,61,0.00,,,0.00,WUHU216HW,2013-12-31 03:35:00,
2013-12-30 22:00:00,22.2,11.6,30.23,West,270,1.8,1.8,63,0.00,,,0.00,WUHU216HW,2013-12-31 04:00:00,
2013-12-30 22:05:00,22.2,11.6,30.23,West,270,1.8,1.8,63,0.00,,,0.00,WUHU216HW,2013-12-31 04:05:00,
2013-12-30 22:30:00,22.7,12.0,30.24,West,270,1.1,1.1,63,0.00,,,0.00,WUHU216HW,2013-12-31 04:30:00,
2013-12-30 22:35:00,22.7,12.0,30.24,West,270,1.1,1.1,63,0.00,,,0.00,WUHU216HW,2013-12-31 04:35:00,
2013-12-30 23:00:00,21.8,11.2,30.24,East,90,0.0,0.0,63,0.00,,,0.00,WUHU216HW,2013-12-31 05:00:00,
2013-12-30 23:01:00,21.8,11.2,30.24,East,90,0.0,0.0,63,0.00,,,0.00,WUHU216HW,2013-12-31 05:01:00,
2013-12-30 23:06:00,21.8,11.2,30.24,East,90,0.0,0.0,63,0.00,,,0.00,WUHU216HW,2013-12-31 05:06:00,
2013-12-30 23:30:00,19.9,10.1,30.25,SW,225,1.1,1.1,65,0.00,,,0.00,WUHU216HW,2013-12-31 05:30:00,
2013-12-30 23:35:00,19.9,10.1,30.25,SW,225,1.1,1.1,65,0.00,,,0.00,WUHU216HW,2013-12-31 05:35:00,